Weather History for Ishigakijima, Japan

Change the Weather History Date:

Tuesday, January 1, 2013

  Actual Average Record
Temperature  
Mean Temperature 60 °F -  
Max Temperature 68 °F 67 °F 77 °F (2007)
Min Temperature 54 °F 60 °F 51 °F (2005)
Degree Days  
Heating Degree Days 5    
Growing Degree Days 10 (Base 50)    
Moisture  
Dew Point 49 °F    
Average Humidity 60    
Maximum Humidity 76    
Minimum Humidity 43    
Precipitation  
Precipitation 0.00 in - - ()
Sea Level Pressure  
Sea Level Pressure 30.13 in    
Wind  
Wind Speed 10 mph ()    
Max Wind Speed 14 mph    
Max Gust Speed -    
Visibility 8.3 miles    
Events      
Averages and records for this station are not official NWS values.
T = Trace of Precipitation, MM = Missing Value Source: Averaged Metar Reports

Daily Weather History Graph

Daily Weather History Graph

Search for Another Location

Airport:

Trip Planner

Search our weather history database for the weather conditions in past years. The results will help you decide how hot, cold, wet, or windy it might be!

Date:

Astronomy

Jan. 01, 2013 Rise Set
Actual Time 7:27 AM JST 6:06 PM JST
Civil Twilight 7:02 AM JST 6:31 PM JST
Nautical Twilight 6:33 AM JST 6:59 PM JST
Astronomical Twilight 6:06 AM JST 7:27 PM JST
Moon 9:35 PM JST (1/1) 9:44 AM JST (1/1)
Length of Visible Light 11h 29m
Length of Day
10h 39m
Waning Gibbous, 87% of the Moon is Illuminated
Jan 1
Waning Gibbous
Jan 5
Last Quarter
Jan 12
New
Jan 19
First Quarter
Jan 27
Full

Hourly Weather History & Observations

Time (JST) Temp. Dew Point Humidity Pressure Visibility Wind Dir Wind Speed Gust Speed Precip Events Conditions
12:00 AM 56 °F 46 °F 60% 30.17 in - NNE 11.5 mph - -  
3:00 AM 55 °F 46 °F 64% 30.14 in 9 mi NNE 10.4 mph - -   Partly Cloudy
6:00 AM 55 °F 45 °F 59% 30.14 in 9 mi NNE 11.5 mph - -   Partly Cloudy
6:00 AM 53.6 °F 44.6 °F 72% 30.12 in 6.2 mi North 8.1 mph - N/A   Partly Cloudy
7:00 AM 51.8 °F 44.6 °F 76% 30.12 in 6.2 mi NNE 9.2 mph - N/A   Partly Cloudy
8:00 AM 55.4 °F 46.4 °F 72% 30.15 in 6.2 mi NNE 5.8 mph - N/A   Scattered Clouds
9:00 AM 61 °F 48 °F 52% 30.18 in 12 mi ENE 11.5 mph - -   Scattered Clouds
9:00 AM 60.8 °F 48.2 °F 63% 30.15 in 6.2 mi ENE 12.7 mph - N/A   Partly Cloudy
10:00 AM 62.6 °F 48.2 °F 59% 30.18 in 6.2 mi NE 12.7 mph - N/A   Partly Cloudy
11:00 AM 64.4 °F 50.0 °F 59% 30.18 in 6.2 mi ENE 12.7 mph - N/A   Scattered Clouds
12:00 PM 66 °F 49 °F 43% 30.18 in 16 mi ENE 13.8 mph - -   Scattered Clouds
12:00 PM 64.4 °F 48.2 °F 56% 30.15 in 6.2 mi ENE 12.7 mph - N/A   Scattered Clouds
1:00 PM 64.4 °F 50.0 °F 59% 30.12 in 6.2 mi ENE 11.5 mph - N/A   Scattered Clouds
2:00 PM 66.2 °F 50.0 °F 56% 30.09 in 6.2 mi ENE 11.5 mph - N/A   Mostly Cloudy
3:00 PM 66 °F 50 °F 45% 30.11 in 16 mi ENE 12.7 mph - -   Partly Cloudy
3:00 PM 64.4 °F 50.0 °F 59% 30.09 in 6.2 mi ENE 11.5 mph - N/A   Mostly Cloudy
4:00 PM 64.4 °F 50.0 °F 59% 30.09 in 6.2 mi ENE 12.7 mph - N/A   Mostly Cloudy
5:00 PM 64.4 °F 51.8 °F 64% 30.09 in 6.2 mi ENE 10.4 mph - N/A   Mostly Cloudy
6:00 PM 65 °F 50 °F 49% 30.13 in 16 mi ENE 11.5 mph - -   Mostly Cloudy
6:00 PM 64.4 °F 50.0 °F 59% 30.09 in 6.2 mi ENE 11.5 mph - N/A   Mostly Cloudy
7:00 PM 62.6 °F 51.8 °F 68% 30.12 in 6.2 mi ENE 10.4 mph - N/A   Mostly Cloudy
8:00 PM 62.6 °F 53.6 °F 72% 30.12 in 6.2 mi ENE 10.4 mph - N/A   Partly Cloudy
9:00 PM 64 °F 53 °F 57% 30.15 in 12 mi East 12.7 mph - -   Scattered Clouds